UNAMSAT

Satellite information

Favourite Embed

Satellite Type and Status

PAYLOADIN ORBIT

Key statistics

Satellite UNAMSAT at a glance.

Uptime

10691

Days in orbit

Revolutions

≈ 13.7

Per day

Orbit

LEO

Low Earth Orbit

Inclination

82.9

Latest

Satellite identification and parameters

Extended collection of information and parameters for UNAMSAT.

Object identification

Identified? True

Debris? False

Object name: UNAMSAT

International designator: 1996-052B

Object number (NORAD): 24305

Object ID (CCSDS): 24305

Country: MEXICO (MEX)

Current information (Y/N): Y

RCS size: MEDIUM

Orbital parameters

Period: 104.799 minutes

Inclination: 82.9373 deg

SMA: 7363.155 km

Apoapsis: 1008.002 km

Periapsis: 962.038 km

RAAN: 218.6215 deg

Eccentricy: 0.00312123

Argument of periapsis: 53.991 deg

Mean anomaly: 306.4132 deg

Mean motion: 13.74063696 rev/day

Mean motion (dot): 0.00000076 rev/day2

B* drag term: 0.000064426565 1/REarth

Two-line elements (TLE)

Creation date: Dec. 12, 2025, 10:14 a.m.

Reference frame: TEME

Reference center: EARTH

Epoch: Dec. 12, 2025, 3:54 a.m. UTC

TLE line 0: 0 UNAMSAT

TLE line 1: 1 24305U 96052B 25346.16296406 .00000076 00000-0 64427-4 0 9990

TLE line 2: 2 24305 82.9373 218.6215 0031212 53.9910 306.4132 13.74063696466931

Live tracking on map

Real-time ground track for satellite UNAMSAT.

In-orbit conjunctions

A list of the most updated potential collisions computed for object UNAMSAT.

Target Orbit TCA Probability of collision Miss distance Type
FENGYUN 1C DEB SSO 2025-06-03 18:00:54 0.0002584965 99.0 (m) DEBRIS
COSMOS 1275 DEB LEO 2024-11-20 23:37:51 0.0002421571 49.0 (m) DEBRIS
THORAD AGENA D DEB SSO 2024-10-13 04:52:16 0.000242951 220.0 (m) DEBRIS

Associated space launch

Navigation satellite providing location information for the Tsiklon-B navigation system

UNAMSAT was lifted into orbit during the mission ‘Kosmos-3M | Parus 86’, on board a Kosmos-3M space rocket.

The launch took place on Sept. 5, 1996, 12:47 p.m. from 132/1 (132L).

For more information about the launch, click the button.

Launch to space Kosmos-3M | Parus 86
Kosmos-3M | Parus 86

Agency: N/A

Status: Launch Successful

Launch date: Sept. 5, 1996, 12:47 p.m. UTC

Rocket: Kosmos-3M

Launch pad: 132/1 (132L)

Location: Plesetsk Cosmodrome, Russian Federation

...

Latest news about this satellite

There are no fresh news available about this satellite. Check back as we update our databases every day.


Newsletter sign-up

Weekly statistics, charts and insights to help you stay on top of the space industry.